Location: Capvern
(43.1036°N, 0.3160°E)
Time: 23:23:45
(UTC+00:00)

Timation 2 Rocket - Pass Details

Date: 16 October 2021
Orbit: 904 x 1077 km, 70.0° (Epoch: 04 December)

Event Time Altitude Azimuth Distance (km) Brightness Sun altitude
Rises 17:47:45 0° 334° (NNW) 3,882 7.4 -6.9°
Reaches altitude 10° 17:50:25 10° 336° (NNW) 2,922 6.7 -7.4°
Maximum altitude 17:57:20 75° 62° (ENE) 1,101 4.2 -8.6°
Drops below altitude 10° 18:04:03 10° 148° (SSE) 2,841 6.2 -9.9°
Sets 18:06:36 0° 150° (SSE) 3,769 6.8 -10.3°
